Deer Park, WA
on Friday, January 4, 2013

Friday
Previous Day Next Day
Daily Summary
 ActualAverageRecord
Temperature
Mean Temperature °F 26°F  
Max Temperature 27°F 32°F 49°F (2012)
Min Temperature 10°F 19°F -20°F (2004)
Degree Days
Heating Degree Days 46 39  
Month to date heating degree days 198 159  
Since 1 July heating degree days 2991 3386  
Cooling Degree Days 0 0  
Month to date cooling degree days 0 0  
Year to date cooling degree days 0 0  
Moisture
Dew Point 19°F   
Average Humidity 84    
Maximum Humidity 92    
Minimum Humidity 75    
Precipitation
Precipitation 0.00 in 0.11 in 0.57 in (2000)
Month to date precipitation 0.00 0.43  
Year to date precipitation 0.00 0.43  
Wind
Wind Speed 2 mph   
Max Wind Speed 10 mph   
Max Gust Speed 13 mph   
Visibility 10 miles   
Events     

Key: T is trace of precipitation, MM is missing value
Source: NWS Daily Summary
Time(PST)TemperatureDew PointHumidity Pressure Visibility Wind DirectionWind SpeedGust SpeedPrecipitationEvents Conditions
12:53 AM 14.0°F 10.9°F 88% 30.43 in 10.0 miles Calm Calm - N/A   Overcast
1:53 AM 15.1°F 12.9°F 91% 30.43 in 10.0 miles Calm Calm - N/A   Overcast
2:53 AM 16.0°F 14.0°F 92% 30.43 in 10.0 miles WNW 3.5 mph - N/A   Overcast
3:53 AM 17.1°F 15.1°F 92% 30.43 in 10.0 miles Calm Calm - N/A   Overcast
5:53 AM 19.0°F 16.0°F 88% 30.45 in 10.0 miles Calm Calm - N/A   Overcast
6:53 AM 19.0°F 17.1°F 92% 30.44 in 10.0 miles Calm Calm - N/A   Overcast
7:53 AM 19.0°F 17.1°F 92% 30.45 in 10.0 miles Calm Calm - N/A   Overcast
8:53 AM 21.0°F 18.0°F 88% 30.47 in 10.0 miles Calm Calm - N/A   Overcast
9:12 AM 21.2°F 19.4°F 93% 30.35 in 10.0 miles Calm Calm - N/A   Overcast
9:53 AM 21.9°F 19.9°F 92% 30.48 in 10.0 miles Calm Calm - N/A   Overcast
10:53 AM 23.0°F 19.9°F 88% 30.50 in 10.0 miles Calm Calm - N/A   Overcast
11:53 AM 23.0°F 19.9°F 88% 30.47 in 10.0 miles Calm Calm - N/A   Overcast
12:53 PM 24.1°F 19.9°F 84% 30.45 in 10.0 miles Calm Calm - N/A   Overcast
1:53 PM 26.1°F 19.9°F 78% 30.44 in 10.0 miles Calm Calm - N/A   Overcast
2:53 PM 26.1°F 19.9°F 78% 30.45 in 10.0 miles Calm Calm - N/A   Overcast
3:53 PM 27.0°F 19.9°F 75% 30.45 in 10.0 miles NE 3.5 mph - N/A   Overcast
4:53 PM 26.1°F 19.9°F 78% 30.45 in 10.0 miles Calm Calm - N/A   Overcast
5:53 PM 26.1°F 21.0°F 81% 30.44 in 10.0 miles North 3.5 mph - N/A   Overcast
6:46 PM 26.6°F 21.2°F 80% 30.34 in 10.0 miles North 6.9 mph - N/A   Overcast
6:53 PM 27.0°F 21.9°F 81% 30.44 in 10.0 miles North 6.9 mph - N/A   Overcast
7:53 PM 27.0°F 21.9°F 81% 30.44 in 10.0 miles NNE 8.1 mph - N/A   Overcast
8:08 PM 26.6°F 23.0°F 86% 30.35 in 10.0 miles North 5.8 mph - N/A   Overcast
8:53 PM 27.0°F 23.0°F 85% 30.45 in 10.0 miles NNE 8.1 mph - N/A   Overcast
9:53 PM 27.0°F 24.1°F 89% 30.45 in 10.0 miles NNE 8.1 mph - N/A   Overcast
10:53 PM 27.0°F 24.1°F 89% 30.45 in 10.0 miles NNE 8.1 mph - N/A   Overcast
11:53 PM 27.0°F 24.1°F 89% 30.44 in 10.0 miles NE 5.8 mph - N/A   Overcast
Moon Phase
Jan. 04 Jan. 04 Jan. 11 Jan. 18 Jan. 26
Sunrise:07:39 AM (PST) Moon Rise:No Moon Rise/
Sunset:04:10 PM (PST) Moon Set:10:48 AM (PST)1/4

Copyright © 2014 The Weather Underground, Inc.